Theta_e
316 316 324 319 326 330 332 333 335 336 337 335 334 333 336 335 338 359 355 355 354 358 342 346 346 347 343 337 336 336 339 340 342 340 338 327 323 322 326 329 331 335 333 327 328 330 331 335 333
324 324 320 322 327 333 333 333 334 334 335 334 332 332 333 335 342 353 353 354 356 359 341 346 345 345 343 337 336 335 335 337 339 339 335 326 324 322 326 329 335 339 338 334 335 336 338 336 331
323 322 321 326 329 332 333 333 334 334 332 333 332 332 332 335 349 350 356 354 358 359 340 344 343 344 343 338 337 335 333 332 333 334 330 325 324 321 325 328 332 333 341 340 340 333 325 324 324
323 320 320 326 330 331 332 333 334 332 331 331 332 332 331 338 347 351 354 355 360 359 352 338 343 344 343 339 337 335 332 329 327 327 325 324 323 321 324 326 329 329 328 329 326 325 322 322 323
322 321 323 326 329 332 333 333 332 330 331 331 330 330 330 335 342 345 349 354 361 358 354 340 343 344 343 339 338 336 332 328 325 323 323 321 321 320 324 326 328 328 327 326 327 326 325 322 323
322 321 323 325 328 330 332 332 332 330 330 330 328 328 328 339 340 345 349 353 359 356 355 343 342 344 342 339 339 336 332 328 323 322 321 320 319 321 325 327 327 328 326 326 325 323 322 322 322
324 324 323 324 326 329 331 331 332 331 329 330 329 328 327 335 339 346 350 352 357 354 356 350 343 344 342 340 339 337 333 329 323 321 320 319 319 322 326 327 327 326 325 325 325 323 321 321 322
322 325 324 324 325 325 327 328 329 328 327 326 327 327 328 326 339 343 350 352 354 353 356 353 349 344 341 339 338 337 334 330 324 320 320 319 320 323 326 327 326 325 325 325 322 321 321 321 321
321 324 325 325 324 325 326 327 326 326 324 323 323 324 325 327 336 339 347 351 353 352 354 353 350 347 344 342 338 336 334 330 325 320 320 320 322 324 326 329 328 325 325 322 321 322 322 322 322
319 323 324 325 326 326 326 325 325 325 323 323 322 323 323 324 333 339 345 350 352 352 354 353 351 349 346 345 340 335 333 329 325 321 320 321 340 331 336 326 327 326 323 323 322 322 322 331 340
318 321 322 322 322 323 325 325 324 324 325 324 324 323 323 323 333 338 341 347 351 352 353 353 352 350 347 346 345 342 340 336 330 326 321 336 342 342 342 338 327 324 323 325 324 324 336 340 338
318 318 318 319 320 320 322 323 324 324 324 323 322 323 324 323 332 337 339 343 351 353 354 353 354 352 347 347 347 345 344 342 341 339 323 339 343 344 344 341 339 340 333 341 341 340 341 342 343
319 319 318 318 318 318 319 320 322 323 323 323 323 322 322 323 325 335 337 342 349 355 355 354 355 354 350 347 347 345 345 345 344 342 338 341 343 344 341 341 341 340 339 341 340 342 344 346 346
316 316 317 317 318 318 319 319 318 318 320 320 322 323 322 322 322 330 335 341 347 355 356 355 356 355 352 349 347 346 345 346 346 344 342 343 342 342 341 342 341 340 343 342 344 346 347 347 346
317 318 317 317 316 317 317 319 320 318 319 319 319 321 323 323 323 323 325 337 344 354 357 355 356 354 353 351 348 348 347 347 347 345 344 343 342 341 340 341 340 344 346 348 350 348 347 347 345
319 318 319 318 318 318 317 317 318 318 319 319 320 319 321 322 323 323 323 325 327 343 357 356 356 355 353 352 351 349 348 347 346 344 345 344 342 343 340 340 342 346 348 348 347 347 348 347 345
317 318 317 319 319 319 319 318 319 319 319 320 321 320 319 319 321 323 323 323 324 330 356 358 356 353 352 353 351 350 348 347 346 344 345 345 343 343 339 339 345 347 348 348 348 349 347 346 345
314 315 316 317 317 317 317 318 319 318 320 321 320 320 320 319 320 321 323 322 322 326 348 357 356 354 352 354 351 350 349 348 346 344 345 344 343 340 336 341 347 346 348 346 349 348 345 344 344
315 316 316 316 317 317 317 317 317 318 320 320 321 321 321 321 321 321 322 323 323 325 346 356 355 354 352 353 351 350 348 348 346 345 343 341 342 328 334 346 347 347 345 349 347 345 343 344 341
314 315 316 316 317 317 317 316 316 317 319 320 320 321 322 322 323 323 322 322 323 332 348 356 355 352 354 352 351 349 348 348 346 344 344 347 342 326 337 347 347 347 348 343 340 341 344 341 339
316 316 316 316 317 317 316 316 316 316 316 318 320 320 322 323 323 324 325 322 324 338 353 356 354 354 352 352 350 348 348 347 346 346 347 347 344 328 345 347 347 346 346 341 339 339 338 341 336
317 317 317 318 316 317 317 316 316 316 317 318 319 320 320 321 322 324 325 324 325 340 354 355 353 356 353 351 349 348 347 346 346 346 347 348 345 336 346 346 346 345 336 337 332 331 334 330 334
319 318 317 317 318 317 316 316 316 316 316 317 319 318 319 320 321 323 325 325 329 345 354 356 353 357 353 347 348 347 347 346 346 346 347 346 344 342 341 344 343 337 332 331 330 327 332 326 329
316 317 317 317 317 318 317 316 316 316 316 316 318 318 318 319 320 322 324 325 331 353 356 355 354 356 353 346 349 348 347 346 346 347 348 345 347 344 340 340 339 334 332 331 330 330 324 326 329
318 318 322 321 320 321 317 317 318 318 316 317 317 319 318 319 320 321 324 324 329 348 355 355 355 355 353 349 350 348 346 346 346 348 347 347 346 343 341 338 333 332 330 328 323 329 325 328 330
318 319 321 320 316 316 315 317 319 317 317 316 317 317 319 320 321 321 324 324 329 341 354 353 356 356 355 351 351 349 347 350 346 346 345 344 342 341 337 332 329 329 329 329 330 323 326 326 324
315 316 315 317 320 321 317 317 319 318 317 316 316 317 318 320 321 321 323 324 327 339 347 353 354 355 354 352 351 350 349 347 345 344 342 341 341 337 336 334 329 329 326 329 326 325 326 322 320
314 315 319 320 322 320 318 318 321 320 319 318 317 317 318 319 320 321 323 324 327 339 344 353 353 355 354 353 351 351 349 348 343 340 340 341 339 335 332 329 328 327 328 326 327 325 323 320 316
316 317 316 317 319 322 320 321 320 320 319 320 318 316 318 321 322 322 323 326 329 339 344 349 351 353 354 352 352 350 349 346 340 342 342 339 335 331 330 327 330 330 328 327 326 323 318 315 313
316 316 318 324 319 319 321 324 318 320 321 321 318 317 317 318 321 321 322 325 331 341 345 347 348 351 354 351 349 350 348 342 340 342 340 336 332 332 332 330 329 329 327 324 321 318 316 314 311
Wind_Speed
8 4 3 6 7 8 16 17 16 10 7 9 5 8 11 12 11 6 9 6 17 24 29 27 23 22 21 21 19 18 18 17 15 13 11 12 14 16 16 15 15 13 11 11 10 8 6 3 2
4 7 7 10 8 14 14 18 18 11 11 3 6 6 10 9 8 9 9 10 20 23 29 28 25 23 22 21 20 18 17 17 16 14 13 13 15 16 16 15 13 10 10 10 8 7 5 3 3
9 11 12 6 14 17 17 17 9 9 7 4 5 2 8 6 5 4 6 14 21 22 27 28 27 25 23 22 20 18 17 15 15 14 13 13 15 16 16 14 12 9 9 9 7 6 5 4 4
7 9 13 13 22 20 22 19 8 9 10 9 12 8 7 2 3 2 8 16 21 22 26 27 28 26 23 22 21 18 16 15 15 14 13 13 14 16 15 13 12 10 9 9 7 5 5 4 4
14 14 14 19 27 27 23 23 19 7 12 9 8 12 8 3 2 3 7 16 20 22 23 27 29 27 25 22 20 19 17 15 15 14 14 14 15 16 15 13 11 10 9 8 6 5 4 3 3
15 16 16 20 28 26 24 29 22 14 20 12 8 10 11 5 3 5 9 16 18 22 23 28 30 28 25 23 20 18 17 15 15 15 15 15 16 17 15 13 12 11 9 7 6 5 4 3 3
19 15 21 26 27 26 25 27 20 19 18 21 15 14 12 7 8 8 11 16 19 22 23 27 31 30 26 23 21 18 16 15 15 16 17 17 17 17 16 14 12 10 8 7 5 4 3 3 3
24 15 28 25 23 30 27 28 17 14 21 22 21 13 16 21 10 9 12 17 21 24 23 25 29 32 29 26 23 20 17 15 15 16 17 18 18 17 16 13 11 9 8 6 5 4 3 2 1
20 16 21 26 29 24 26 25 21 16 22 21 18 24 18 6 8 13 15 19 24 25 24 25 27 28 27 26 26 22 20 18 17 18 19 18 18 17 15 12 10 9 7 6 4 3 2 1 1
21 17 29 24 23 21 23 27 22 22 17 17 22 22 20 15 14 16 19 22 27 28 27 26 28 27 26 22 26 26 24 22 21 21 21 20 14 15 13 13 12 10 8 6 4 2 2 5 2
27 26 25 28 26 29 27 27 27 20 24 25 22 20 20 21 18 20 21 23 28 29 28 28 30 29 27 24 25 21 21 21 21 21 23 17 15 14 15 12 14 11 9 5 3 3 4 1 4
23 32 32 29 30 31 28 26 28 29 27 27 25 26 21 22 21 21 22 24 27 30 29 28 29 30 31 25 23 22 20 20 18 20 23 19 16 16 14 10 10 9 8 7 4 3 7 3 3
22 22 29 31 32 31 29 29 27 31 31 28 27 30 22 21 19 22 22 23 26 30 30 31 31 31 32 28 23 23 21 20 19 19 21 18 17 16 15 12 11 9 8 9 7 7 4 3 3
22 24 22 24 25 27 29 27 30 40 35 33 31 31 32 30 25 23 23 22 25 30 32 33 31 31 31 28 25 25 23 20 20 19 20 19 17 16 15 13 12 9 9 8 7 6 5 3 4
17 20 21 22 22 26 30 30 33 38 40 37 33 37 33 33 32 31 27 23 23 25 34 37 34 33 32 28 27 24 22 20 20 18 20 19 18 19 15 13 12 10 9 8 7 7 5 3 3
21 22 21 20 23 25 26 33 30 36 41 40 39 35 36 38 38 34 35 31 28 26 33 39 34 32 34 31 27 23 21 20 19 18 18 20 18 16 18 14 12 11 9 7 7 4 4 3 4
20 21 26 25 20 14 23 29 26 28 33 37 37 42 40 38 37 39 40 36 33 30 30 36 37 36 36 33 26 23 21 20 18 18 17 20 19 17 17 13 13 15 8 9 6 5 4 5 4
23 24 24 20 17 18 18 23 23 29 33 30 41 39 39 43 41 39 37 40 38 36 36 35 37 34 38 32 29 23 22 21 19 19 18 22 19 19 20 14 15 15 11 9 5 4 3 4 6
23 26 26 26 26 26 20 23 24 24 30 30 32 29 33 33 35 38 38 35 35 38 39 41 39 40 41 35 32 28 26 23 20 19 20 19 18 20 20 15 16 12 9 6 4 1 4 3 5
26 28 27 28 27 23 22 24 23 23 27 33 31 27 31 28 29 30 37 36 38 38 40 43 40 45 46 39 33 29 26 23 21 19 22 19 20 23 23 14 13 12 10 7 2 2 1 3 5
23 25 28 28 26 22 22 26 26 24 31 42 37 35 34 33 33 31 32 37 37 36 40 47 43 48 49 40 34 30 26 23 23 22 20 19 21 23 18 15 14 15 11 5 1 1 1 1 7
22 27 21 25 18 17 19 19 23 22 24 30 40 39 39 36 33 33 29 37 36 39 37 43 43 47 50 43 38 36 34 32 27 23 20 20 19 21 22 21 17 15 10 5 5 8 9 3 1
17 24 18 21 21 20 26 17 20 23 27 27 31 44 43 40 38 36 32 33 37 37 37 40 44 45 48 46 39 38 32 28 25 23 25 18 21 23 26 23 18 12 8 3 5 4 15 2 2
16 15 20 18 18 18 27 21 22 20 23 26 28 42 47 45 41 38 35 29 36 37 41 46 43 45 45 50 40 38 34 30 29 28 26 27 30 28 25 20 16 14 7 3 1 7 7 5 6
12 14 9 13 13 15 22 15 15 26 21 25 28 33 44 48 41 42 38 38 37 38 37 43 46 47 42 50 39 40 37 32 33 37 36 34 31 28 22 20 17 15 15 13 7 7 7 7 7
9 11 7 16 16 20 23 12 16 15 18 29 24 38 35 33 35 41 37 35 39 39 38 42 46 46 44 44 40 38 35 32 40 37 32 32 29 27 25 21 15 12 15 10 9 9 9 10 8
19 19 21 20 19 18 20 25 25 20 18 18 16 29 27 33 32 38 37 37 38 39 39 42 46 44 43 42 41 39 36 38 37 29 27 29 28 28 22 17 15 15 18 15 12 10 9 8 6
18 18 15 7 7 17 17 12 7 16 13 16 16 22 29 25 36 37 35 36 37 39 37 38 43 46 44 44 41 40 43 33 30 28 30 29 29 24 22 20 21 20 16 13 11 8 8 6 5
16 15 16 12 11 13 18 8 6 9 19 16 17 26 26 22 25 24 28 27 34 38 37 35 40 45 44 45 46 46 39 31 29 30 28 30 30 29 25 26 22 18 18 13 12 7 3 3 4
20 21 17 9 10 11 11 12 7 6 25 23 3 17 31 30 24 24 28 27 30 36 40 36 34 42 44 49 46 44 36 33 31 30 33 34 32 30 29 27 23 17 14 12 9 6 2 2 2
Wind_Direction
253 263 263 246 247 227 255 251 258 272 243 229 324 279 358 331 333 80 133 130 154 163 170 170 171 172 171 170 170 168 172 173 172 167 158 152 149 153 152 149 146 144 150 155 158 163 162 145 129
205 225 223 261 249 253 249 233 262 233 270 127 282 253 253 286 38 108 144 147 157 166 169 173 174 175 174 173 171 170 172 175 176 175 168 161 156 158 156 155 151 144 145 147 149 152 162 176 176
170 212 251 231 236 248 258 264 265 285 224 196 266 240 312 334 74 59 135 155 163 164 172 178 176 177 178 178 175 171 173 177 181 178 172 165 163 162 162 160 159 151 155 158 162 170 176 173 166
192 213 250 251 243 235 241 261 299 303 269 255 250 282 245 87 16 55 154 163 171 169 171 180 179 180 181 181 178 176 174 180 185 181 176 170 168 167 166 164 164 163 166 166 166 169 170 169 169
220 248 240 239 243 250 256 255 260 282 263 256 208 249 239 144 162 172 162 172 178 174 173 181 181 182 183 183 182 179 177 184 188 184 180 176 173 170 169 168 168 173 169 169 175 183 177 166 166
224 234 241 243 244 246 246 252 257 242 259 241 188 237 259 155 190 193 178 179 182 177 180 186 184 184 186 185 185 183 181 189 188 185 183 179 175 172 173 174 174 169 170 175 180 183 180 171 177
238 235 246 255 261 259 248 240 245 246 232 251 244 261 263 197 215 194 190 185 185 181 185 183 184 186 187 189 188 187 186 191 190 186 183 178 175 176 179 180 179 178 180 182 186 191 183 189 192
238 252 260 256 256 260 267 270 259 230 244 258 260 253 249 245 197 204 196 189 186 185 188 182 182 187 188 189 192 189 191 191 190 187 183 179 176 181 185 186 189 192 185 191 194 194 192 204 217
231 246 250 251 255 263 265 265 275 269 253 253 258 248 247 212 207 209 199 195 190 189 190 185 183 183 182 188 191 190 190 191 189 186 185 178 181 185 187 185 199 195 197 196 196 194 190 210 63
230 240 243 255 270 267 272 263 247 247 253 248 256 245 241 228 224 213 203 197 194 192 191 189 186 183 179 184 190 190 188 189 187 187 183 180 182 179 174 200 195 201 199 196 192 178 136 61 293
239 244 262 270 263 263 272 278 269 247 251 256 256 239 237 232 222 219 211 205 198 196 194 192 190 185 181 184 187 182 183 186 186 187 186 172 187 179 178 205 199 200 195 194 197 158 75 348 188
249 254 258 266 270 280 275 269 265 268 264 259 266 254 249 222 226 219 219 210 204 198 196 193 191 187 180 187 184 184 183 187 184 186 185 177 184 190 184 197 193 190 205 189 191 213 199 178 182
257 258 263 267 267 266 270 265 268 265 257 260 261 259 246 247 226 229 222 217 207 201 197 193 192 187 184 187 185 186 187 190 188 190 186 188 185 196 187 194 190 195 202 204 193 198 177 209 227
279 283 282 279 273 261 255 255 255 254 258 261 261 254 251 248 228 233 224 222 211 202 197 195 194 192 187 187 186 186 188 193 188 192 193 189 183 201 191 193 186 191 193 191 185 197 207 219 245
277 277 267 262 261 259 257 257 249 257 260 260 249 245 248 246 238 231 229 221 219 209 196 199 195 195 191 188 186 187 191 192 190 193 198 186 179 211 185 192 185 182 186 181 196 209 226 220 251
268 262 266 264 252 243 232 254 251 250 253 251 248 247 237 240 241 234 225 222 220 222 200 198 198 195 193 189 189 190 195 192 192 192 195 187 181 200 179 190 181 188 192 190 202 214 227 252 284
255 255 259 260 258 264 277 258 250 259 256 257 250 235 236 240 240 237 233 227 222 213 206 195 198 204 198 190 194 190 198 188 192 192 194 186 186 191 176 186 183 193 186 198 195 217 229 266 278
266 270 285 284 296 292 262 268 276 267 265 256 242 252 234 228 237 236 231 227 220 212 207 203 203 203 195 192 189 192 196 189 191 191 193 195 185 190 169 179 196 186 192 185 186 193 253 250 278
276 277 275 279 278 280 270 274 278 276 258 245 262 238 236 235 237 231 227 225 217 208 196 207 199 192 190 190 189 190 191 188 189 189 194 203 185 191 172 179 196 177 177 171 187 243 292 320 320
271 271 274 274 273 270 270 270 268 277 271 263 247 245 250 246 240 234 220 215 216 202 195 205 203 187 192 187 188 187 186 187 185 183 187 184 191 187 177 191 182 167 168 172 203 290 281 322 337
259 261 264 270 279 282 282 273 267 256 258 262 250 248 247 243 239 236 223 216 207 205 190 203 203 187 192 184 181 181 182 182 181 184 184 179 191 186 168 185 181 168 151 151 152 78 78 5 305
264 268 275 273 264 264 269 277 271 275 248 246 249 240 238 236 240 239 223 216 208 201 197 203 202 189 192 178 177 179 181 180 182 181 177 176 174 173 182 188 186 175 169 143 87 25 348 298 281
278 278 270 289 278 275 267 267 272 277 273 245 236 239 238 238 233 232 229 209 212 201 198 201 197 191 191 180 181 182 181 179 175 174 185 175 170 179 191 193 176 173 152 50 28 1 299 262 59
286 281 286 272 262 257 262 261 262 271 271 264 250 226 234 237 230 227 220 215 207 195 199 201 196 192 194 179 180 182 179 174 170 172 169 177 178 185 186 171 177 177 184 119 265 296 261 252 272
293 262 272 262 252 252 267 294 280 282 282 270 253 244 226 226 219 221 216 208 205 197 197 197 196 193 191 182 177 182 177 173 170 180 178 182 186 185 172 173 176 180 176 163 182 265 269 273 260
247 260 248 282 288 294 301 266 268 299 257 260 267 292 230 211 223 215 213 207 201 199 191 195 189 190 185 181 175 178 168 170 183 188 191 192 183 172 170 172 175 178 179 205 233 217 247 277 281
270 259 261 275 285 274 280 272 284 318 273 252 232 258 272 211 220 214 210 205 203 195 192 194 190 185 182 176 174 172 172 184 185 186 187 182 177 171 184 195 179 193 172 197 205 211 235 252 279
254 268 279 270 277 272 276 295 287 300 282 265 271 234 254 214 226 216 203 203 203 188 190 187 189 184 179 176 172 168 185 180 182 177 179 178 174 173 169 174 178 180 186 190 201 217 231 250 288
264 238 241 269 261 276 290 307 274 326 304 252 249 228 232 236 196 193 197 199 198 182 183 190 187 185 175 173 172 177 178 171 167 172 173 174 169 170 172 175 180 177 191 195 210 221 227 272 291
263 272 243 247 251 256 283 278 232 357 295 267 307 262 215 228 201 199 193 186 199 178 174 182 183 182 172 172 176 175 171 161 167 164 170 169 165 166 172 172 177 178 185 179 182 169 169 229 287